• In Hungary
  • List of Countries
  • For 7 days
  • Water Temperature
  • Satellite Maps
  • Weather Map
  • News
  • Weather Widgets
  • user-avatar
    Login

    Hourly Weather Zaborovka

    Today, 23 July, Monday

    Time Temperature Precipitation Wind Pressure Humidity
    00:00 +19°C° 0 mm 1 mps 736 mmHg 98%
    01:00 +18°C° 0 mm 1 mps 736 mmHg 98%
    02:00 +18°C° 0 mm 1 mps 736 mmHg 98%
    03:00 +17°C° 0 mm 2 mps 737 mmHg 98%
    04:00 +17°C° 0 mm 2 mps 737 mmHg 97%
    05:00 +17°C° 0 mm 2 mps 737 mmHg 97%
    06:00 +19°C° 0.1 mm 2 mps 737 mmHg 91%
    07:00 +20°C° 0.1 mm 2 mps 737 mmHg 85%
    08:00 +23°C° 0.1 mm 2 mps 737 mmHg 79%
    09:00 +24°C° 0.1 mm 3 mps 737 mmHg 74%
    10:00 +25°C° 0.1 mm 3 mps 737 mmHg 69%
    11:00 +26°C° 0.1 mm 3 mps 737 mmHg 64%
    12:00 +25°C° 0.3 mm 3 mps 737 mmHg 66%
    13:00 +25°C° 0.3 mm 3 mps 737 mmHg 68%
    14:00 +25°C° 0.3 mm 3 mps 737 mmHg 70%
    15:00 +25°C° 0.2 mm 3 mps 737 mmHg 71%
    16:00 +25°C° 0.2 mm 3 mps 737 mmHg 71%
    17:00 +24°C° 0.2 mm 3 mps 737 mmHg 71%
    18:00 +23°C° 0 mm 2 mps 737 mmHg 78%
    19:00 +21°C° 0 mm 2 mps 737 mmHg 84%
    20:00 +19°C° 0 mm 2 mps 738 mmHg 91%
    21:00 +18°C° 0 mm 2 mps 738 mmHg 93%
    22:00 +18°C° 0 mm 2 mps 738 mmHg 95%
    23:00 +17°C° 0 mm 2 mps 738 mmHg 98%

    Tomorrow, 24 July, Tuesday

    Time Temperature Precipitation Wind Pressure Humidity
    00:00 +16°C° 0 mm 2 mps 738 mmHg 98%
    01:00 +16°C° 0 mm 2 mps 738 mmHg 98%
    02:00 +16°C° 0 mm 1 mps 738 mmHg 98%
    03:00 +16°C° 0 mm 2 mps 738 mmHg 97%
    04:00 +16°C° 0 mm 2 mps 738 mmHg 97%
    05:00 +16°C° 0 mm 2 mps 738 mmHg 96%
    06:00 +17°C° 0 mm 2 mps 739 mmHg 90%
    07:00 +19°C° 0 mm 2 mps 739 mmHg 85%
    08:00 +20°C° 0 mm 3 mps 739 mmHg 79%
    09:00 +21°C° 0 mm 3 mps 739 mmHg 75%
    10:00 +22°C° 0 mm 3 mps 739 mmHg 72%
    11:00 +24°C° 0 mm 3 mps 739 mmHg 68%
    12:00 +24°C° 0.1 mm 3 mps 739 mmHg 68%
    13:00 +24°C° 0.1 mm 3 mps 739 mmHg 67%
    14:00 +25°C° 0.1 mm 3 mps 739 mmHg 67%
    15:00 +25°C° 0.2 mm 3 mps 739 mmHg 70%
    16:00 +25°C° 0.2 mm 3 mps 739 mmHg 73%
    17:00 +24°C° 0.2 mm 3 mps 739 mmHg 76%
    18:00 +22°C° 0.3 mm 3 mps 739 mmHg 82%
    19:00 +21°C° 0.3 mm 2 mps 739 mmHg 88%
    20:00 +20°C° 0.3 mm 2 mps 739 mmHg 93%
    21:00 +19°C° 0.1 mm 2 mps 739 mmHg 95%
    22:00 +19°C° 0.1 mm 2 mps 739 mmHg 96%
    23:00 +18°C° 0.1 mm 2 mps 739 mmHg 98%

    Day after tomorrow, 25 July, Wednesday

    Time Temperature Precipitation Wind Pressure Humidity
    00:00 +18°C° 0 mm 2 mps 739 mmHg 98%
    01:00 +18°C° 0 mm 2 mps 739 mmHg 98%
    02:00 +17°C° 0 mm 2 mps 740 mmHg 98%
    03:00 +17°C° 0 mm 2 mps 740 mmHg 98%
    04:00 +17°C° 0 mm 2 mps 740 mmHg 98%
    05:00 +18°C° 0 mm 2 mps 740 mmHg 98%
    06:00 +19°C° 0 mm 2 mps 740 mmHg 94%
    07:00 +20°C° 0 mm 2 mps 740 mmHg 91%
    08:00 +21°C° 0 mm 2 mps 740 mmHg 87%
    09:00 +24°C° 0 mm 2 mps 740 mmHg 80%
    10:00 +25°C° 0 mm 2 mps 740 mmHg 74%
    11:00 +27°C° 0 mm 2 mps 740 mmHg 67%
    12:00 +27°C° 0.2 mm 2 mps 740 mmHg 67%
    13:00 +28°C° 0.2 mm 3 mps 740 mmHg 66%
    14:00 +28°C° 0.2 mm 3 mps 740 mmHg 65%
    15:00 +27°C° 0.5 mm 3 mps 740 mmHg 70%
    16:00 +27°C° 0.5 mm 3 mps 740 mmHg 75%
    17:00 +26°C° 0.5 mm 2 mps 740 mmHg 80%
    18:00 +25°C° 0.1 mm 2 mps 740 mmHg 84%
    19:00 +23°C° 0.1 mm 2 mps 741 mmHg 87%
    20:00 +21°C° 0.1 mm 2 mps 741 mmHg 91%
    21:00 +20°C° 0 mm 2 mps 741 mmHg 91%
    22:00 +19°C° 0 mm 2 mps 741 mmHg 92%
    23:00 +19°C° 0 mm 2 mps 742 mmHg 93%

    26 July, Thursday

    Time Temperature Precipitation Wind Pressure Humidity
    00:00 +18°C° 0 mm 2 mps 742 mmHg 93%
    01:00 +17°C° 0 mm 2 mps 742 mmHg 93%
    02:00 +16°C° 0 mm 2 mps 741 mmHg 93%
    03:00 +17°C° 0.1 mm 2 mps 742 mmHg 91%
    04:00 +17°C° 0.1 mm 2 mps 742 mmHg 90%
    05:00 +17°C° 0.1 mm 3 mps 742 mmHg 88%
    06:00 +18°C° 0.1 mm 3 mps 742 mmHg 83%
    07:00 +20°C° 0.1 mm 3 mps 742 mmHg 77%
    08:00 +22°C° 0.1 mm 3 mps 742 mmHg 72%
    09:00 +25°C° 0 mm 4 mps 742 mmHg 65%
    10:00 +26°C° 0 mm 4 mps 742 mmHg 59%
    11:00 +28°C° 0 mm 4 mps 742 mmHg 52%
    12:00 +29°C° 0 mm 4 mps 742 mmHg 50%
    13:00 +30°C° 0 mm 4 mps 742 mmHg 47%
    14:00 +32°C° 0 mm 4 mps 742 mmHg 45%
    15:00 +30°C° 0 mm 4 mps 742 mmHg 49%
    16:00 +30°C° 0 mm 3 mps 742 mmHg 52%
    17:00 +29°C° 0 mm 3 mps 742 mmHg 56%
    18:00 +27°C° 0.1 mm 3 mps 742 mmHg 64%
    19:00 +26°C° 0.1 mm 3 mps 742 mmHg 72%
    20:00 +24°C° 0.1 mm 2 mps 742 mmHg 80%
    21:00 +23°C° 0 mm 2 mps 742 mmHg 82%
    22:00 +21°C° 0 mm 2 mps 742 mmHg 83%
    23:00 +21°C° 0 mm 2 mps 742 mmHg 85%

    27 July, Friday

    Time Temperature Precipitation Wind Pressure Humidity
    00:00 +20°C° 0 mm 2 mps 742 mmHg 86%
    01:00 +20°C° 0 mm 2 mps 742 mmHg 87%
    02:00 +20°C° 0 mm 2 mps 743 mmHg 88%
    03:00 +19°C° 0 mm 2 mps 743 mmHg 89%
    04:00 +19°C° 0 mm 2 mps 743 mmHg 90%
    05:00 +19°C° 0 mm 2 mps 743 mmHg 91%
    06:00 +20°C° 0 mm 2 mps 743 mmHg 86%
    07:00 +23°C° 0 mm 2 mps 743 mmHg 80%
    08:00 +25°C° 0 mm 3 mps 744 mmHg 75%
    09:00 +26°C° 0 mm 3 mps 744 mmHg 70%
    10:00 +27°C° 0 mm 3 mps 744 mmHg 65%
    11:00 +29°C° 0 mm 3 mps 744 mmHg 60%
    12:00 +30°C° 0 mm 3 mps 744 mmHg 56%
    13:00 +30°C° 0 mm 3 mps 744 mmHg 52%
    14:00 +32°C° 0 mm 4 mps 744 mmHg 48%
    15:00 +30°C° 0 mm 3 mps 744 mmHg 53%
    16:00 +29°C° 0 mm 3 mps 744 mmHg 58%
    17:00 +28°C° 0 mm 3 mps 744 mmHg 63%
    18:00 +27°C° 0 mm 3 mps 744 mmHg 69%
    19:00 +26°C° 0 mm 2 mps 744 mmHg 74%
    20:00 +24°C° 0 mm 2 mps 744 mmHg 80%
    21:00 +24°C° 0 mm 2 mps 744 mmHg 82%
    22:00 +23°C° 0 mm 2 mps 745 mmHg 84%
    23:00 +21°C° 0 mm 2 mps 745 mmHg 86%

    28 July, Saturday

    Time Temperature Precipitation Wind Pressure Humidity
    00:00 +21°C° 0 mm 2 mps 745 mmHg 87%
    01:00 +20°C° 0 mm 2 mps 745 mmHg 89%
    02:00 +20°C° 0 mm 2 mps 745 mmHg 90%
    03:00 +20°C° 0 mm 2 mps 745 mmHg 90%
    04:00 +20°C° 0 mm 2 mps 745 mmHg 89%
    05:00 +20°C° 0 mm 2 mps 745 mmHg 89%
    06:00 +23°C° 0 mm 2 mps 745 mmHg 82%
    07:00 +25°C° 0 mm 2 mps 746 mmHg 75%
    08:00 +27°C° 0 mm 2 mps 746 mmHg 68%
    09:00 +28°C° 0 mm 2 mps 746 mmHg 60%
    10:00 +29°C° 0 mm 2 mps 746 mmHg 53%
    11:00 +31°C° 0 mm 3 mps 746 mmHg 46%
    12:00 +31°C° 0 mm 3 mps 746 mmHg 45%
    13:00 +31°C° 0 mm 3 mps 745 mmHg 44%
    14:00 +33°C° 0 mm 3 mps 745 mmHg 42%
    15:00 +31°C° 0 mm 3 mps 745 mmHg 46%
    16:00 +31°C° 0 mm 2 mps 745 mmHg 50%
    17:00 +30°C° 0 mm 2 mps 745 mmHg 54%
    18:00 +28°C° 0 mm 2 mps 745 mmHg 61%
    19:00 +26°C° 0 mm 2 mps 745 mmHg 68%
    20:00 +24°C° 0 mm 1 mps 745 mmHg 74%
    21:00 +23°C° 0 mm 1 mps 745 mmHg 76%
    22:00 +22°C° 0 mm 1 mps 745 mmHg 77%
    23:00 +22°C° 0 mm 1 mps 746 mmHg 79%
    Show more